Regional Weather Roundup
Issued by NWS Albany, NY

Home | Current Version | Previous Version | Graphics & Text | Print | Product List | Glossary Off
Versions: 1 2 3 4 5 6 7 8 9 10 11 12 13 14 15 16 17 18 19 20 21 22 23 24 25 26 27 28 29 30 31 32 33 34 35 36 37 38 39 40 41 42 43 44 45 46 47 48 49 50

000
ASUS41 KALY 041310
RWRALY

NEW YORK STATE HOURLY WEATHER ROUNDUP
NATIONAL WEATHER SERVICE ALBANY NY
900 AM EDT MON MAY 04 2015

NOTE: "FAIR" INDICATES FEW OR NO CLOUDS BELOW 12,000 FEET WITH NO
SIGNIFICANT WEATHER AND/OR NO OBSTRUCTIONS TO VISIBILITY.

NYZ032-033-038>043-046>054-057>066-NYZ062>081-041400-
EAST


CITY           SKY/WX    TMP DP  RH WIND       PRES   REMARKS
ALBANY         SUNNY     64  42  44 S13       30.18R
GLENS FALLS    SUNNY     64  44  48 S10       30.17S
POUGHKEEPSIE   PTSUNNY   66  45  46 CALM      30.19S
NEWBURGH       MOSUNNY   64  48  55 CALM      30.21R
MONTGOMERY     MOSUNNY   65  47  52 S5        30.19S
WHITE PLAINS   SUNNY     62  50  64 CALM      30.21S
ISLIP          MOSUNNY   63  51  65 SW5       30.21R
NEW YORK CITY  MOSUNNY   61  49  64 NE5       30.21S
CENTRAL PARK   SUNNY     67  48  50 CALM      30.24S
$$

NYZ005>009-017-018-044>046-055-056-041400-
CENTRAL


CITY           SKY/WX    TMP DP  RH WIND       PRES   REMARKS
FULTON         PTSUNNY   64  45  49 S6        30.11F
SYRACUSE       PTSUNNY   65  48  54 CALM      30.12S
ROME           PTSUNNY   65  43  44 E7        30.15F
ELMIRA         MOSUNNY   54  44  69 CALM      30.19R
BINGHAMTON     SUNNY     64  40  41 SW8       30.19S
MONTICELLO     PTSUNNY   63  39  42 CALM      30.23S
$$

NYZ026>034-041>043-041400-
NORTH


CITY           SKY/WX    TMP DP  RH WIND       PRES   REMARKS
WATERTOWN      MOSUNNY   71  40  32 S12G18    30.08F
FORT DRUM      NOT AVBL
MASSENA        SUNNY     73  40  30 SW14      30.06F
SARANAC LAKE   SUNNY     63  39  41 W7        30.13R
PLATTSBURGH    SUNNY     61  43  51 SE10      30.09F
$$

NYZ001>004-010>016-019>021-041400-
WEST


CITY           SKY/WX    TMP DP  RH WIND       PRES   REMARKS
NIAGARA FALLS  MOSUNNY   68  43  40 SW9       30.08S
BUFFALO        MOSUNNY   71  43  36 S12       30.09F
DUNKIRK        SUNNY     69  44  40 S15G24    30.10F
JAMESTOWN      SUNNY     64  43  45 S7        30.17S
WELLSVILLE     MOSUNNY   68  40  35 SW6       30.20S
ROCHESTER      MOSUNNY   68  42  38 SW10      30.10F
PENN YAN       PTSUNNY   64  42  44 SW12      30.15S
$$

             KEY
       WCI = WIND CHILL INDEX
       VSB = VISIBILITY
       HX  = HEAT INDEX
$$



USA.gov is the U.S. government's official web portal to all federal, state and local government web resources and services.